Date String (YYYY-MM-DD hh:mm:ss) UTC,Instrument flags,absolute air pressure of the measurement (hPa),sample flow rate (lpm),inlet stack bypass flow (lpm),air temperature of the measurement (°C),ambient temperature measured by the external sensor (°C),aerosol sample conditioner tube jacket temperature (°C),OPC LED temperature (°C),internal box temperature (°C),relative humidity of the measurement (%),span deviation,mass concentration of particles derived from Lorenz-Mie calculation of OPC scattering (μg/m³),mass concentration of particles derived from Lorenz-Mie calculation of OPC scattering (μg/m³),mass concentration of particles derived from Lorenz-Mie calculation of OPC scattering (μg/m³)
DateTimeUTC,F1_M11,P_M11,Q1_M11,Q2_M11,T1_M11,T2_M11,T3_M11,T4_M11,T5_M11,U1_M11,ZSPAN_M11,X0_M11,X2_M11,X1_M11
2024-03-07 14:00:00,SystemResetWarning,0822.8,5.00,000.00,018.4,017.7,000.0,027.0,020.1,25.1,0000.0,0017.12,0005.03,0003.80
2024-03-07 14:01:00,SystemResetWarning,0823.1,4.98,000.00,018.4,017.6,000.0,027.0,020.1,25.1,0000.0,0015.85,0005.02,0003.82
2024-03-07 14:02:00,SystemResetWarning,0823.3,5.00,000.00,018.4,017.6,000.0,027.0,020.1,25.1,0000.0,0016.00,0005.03,0003.83
2024-03-07 14:03:00,SystemResetWarning,0823.3,5.01,000.00,018.4,017.6,000.0,027.0,020.1,25.0,0000.0,0016.97,0005.04,0003.82
2024-03-07 14:04:00,SystemResetWarning,0822.9,5.00,000.00,018.4,017.6,000.0,027.0,020.1,25.0,0000.0,0016.67,0005.06,0003.82
2024-03-07 14:05:00,SystemResetWarning,0823.2,5.00,000.00,018.4,017.6,000.0,027.0,020.1,24.9,0000.0,0017.63,0005.07,0003.83
2024-03-07 14:06:00,SystemResetWarning,0822.9,5.01,000.00,018.4,017.6,000.0,027.0,020.1,24.8,0000.0,0018.19,0005.08,0003.84
2024-03-07 14:07:00,SystemResetWarning,0822.9,5.00,000.00,018.4,017.6,000.0,027.0,020.1,24.6,0000.0,0016.85,0005.02,0003.84
2024-03-07 14:08:00,SystemResetWarning,0823.1,5.00,000.00,018.3,017.5,000.0,027.0,020.1,24.6,0000.0,0016.60,0004.96,0003.86
2024-03-07 14:09:00,SystemResetWarning,0823.2,5.00,000.00,018.3,017.5,000.0,027.0,020.1,24.5,0000.0,0016.03,0004.98,0003.87
2024-03-07 14:10:00,SystemResetWarning,0823.0,4.99,000.00,018.3,017.5,000.0,027.0,020.1,24.5,0000.0,0015.59,0004.98,0003.88
2024-03-07 14:11:00,SystemResetWarning,0822.9,4.99,000.00,018.3,017.5,000.0,027.0,020.1,24.5,0000.0,0015.57,0005.00,0003.90
2024-03-07 14:12:00,SystemResetWarning,0822.9,5.01,000.00,018.3,017.5,000.0,027.0,020.1,24.5,0000.0,0015.79,0005.00,0003.90
2024-03-07 14:13:00,SystemResetWarning,0822.9,5.01,000.00,018.3,017.5,000.0,026.9,020.0,24.5,0000.0,0015.51,0004.98,0003.92
2024-03-07 14:14:00,SystemResetWarning,0823.0,5.00,000.00,018.3,017.5,000.0,026.9,020.0,24.5,0000.0,0015.37,0005.01,0003.94
2024-03-07 14:15:00,SystemResetWarning,0822.9,4.99,000.00,018.3,017.5,000.0,026.9,020.0,24.5,0000.0,0014.29,0005.06,0003.98
2024-03-07 14:16:00,SystemResetWarning,0822.9,5.00,000.00,018.3,017.5,000.0,026.9,020.0,24.5,0000.0,0013.93,0005.07,0004.00
2024-03-07 14:17:00,SystemResetWarning,0822.9,5.01,000.00,018.3,017.5,000.0,026.9,020.0,24.5,0000.0,0013.28,0005.10,0004.02
2024-03-07 14:18:00,SystemResetWarning,0823.0,5.00,000.00,018.3,017.5,000.0,026.9,020.0,24.5,0000.0,0013.18,0005.14,0004.04
2024-03-07 14:19:00,SystemResetWarning,0822.9,5.00,000.00,018.3,017.5,000.0,026.9,020.0,24.5,0000.1,0012.91,0005.17,0004.05
2024-03-07 14:20:00,SystemResetWarning,0823.3,5.00,000.00,018.3,017.5,000.0,026.9,020.0,24.5,0002.0,0013.18,0005.22,0004.09
2024-03-07 14:21:00,SystemResetWarning,0823.2,5.00,000.00,018.3,017.5,000.0,026.9,020.0,24.5,0002.4,0013.66,0005.27,0004.13
2024-03-07 14:22:00,SystemResetWarning,0823.0,5.00,000.00,018.3,017.5,000.0,026.9,020.0,24.5,0002.1,0013.95,0005.30,0004.17
2024-03-07 14:23:00,SystemResetWarning,0822.9,5.00,000.00,018.3,017.5,000.0,026.9,020.0,24.5,0002.0,0014.51,0005.38,0004.25
2024-03-07 14:24:00,SystemResetWarning,0822.9,5.00,000.00,018.3,017.5,000.0,026.9,020.0,24.5,0002.1,0014.48,0005.54,0004.32
2024-03-07 14:25:00,SystemResetWarning,0823.0,5.00,000.00,018.2,017.5,000.0,026.9,020.0,24.5,0002.1,0013.27,0005.64,0004.38
2024-03-07 14:26:00,SystemResetWarning,0823.0,4.99,000.00,018.3,017.5,000.0,026.9,020.0,24.5,0002.0,0013.46,0005.73,0004.44
2024-03-07 14:27:00,SystemResetWarning,0823.1,4.99,000.00,018.2,017.5,000.0,026.9,020.0,24.5,0002.0,0013.37,0005.79,0004.50
2024-03-07 14:28:00,SystemResetWarning,0823.0,5.00,000.00,018.3,017.5,000.0,026.9,020.0,24.4,0001.8,0014.01,0005.84,0004.56
2024-03-07 14:29:00,SystemResetWarning,0823.0,5.00,000.00,018.2,017.5,000.0,026.9,020.0,24.4,0002.0,0014.46,0005.92,0004.61
2024-03-07 14:30:00,SystemResetWarning,0823.0,5.00,000.00,018.2,017.5,000.0,026.9,020.0,24.5,0002.7,0015.00,0006.03,0004.68
2024-03-07 14:31:00,SystemResetWarning,0823.0,5.00,000.00,018.2,017.5,000.0,026.9,020.0,24.5,0002.9,0015.14,0006.05,0004.73
2024-03-07 14:32:00,SystemResetWarning,0823.0,5.00,000.00,018.2,017.5,000.0,026.9,020.0,24.4,0002.8,0014.81,0006.09,0004.76
2024-03-07 14:33:00,SystemResetWarning,0823.0,5.00,000.00,018.2,017.5,000.0,026.9,020.0,24.5,0003.3,0015.80,0006.18,0004.79
2024-03-07 14:34:00,SystemResetWarning,0823.0,5.00,000.00,018.2,017.5,000.0,026.9,020.0,24.5,0003.2,0016.88,0006.27,0004.80
2024-03-07 14:35:00,SystemResetWarning,0823.1,5.01,000.00,018.3,018.0,000.0,027.0,020.4,24.4,0003.6,0017.10,0006.24,0004.80
2024-03-07 14:36:00,SystemResetWarning,0823.1,5.00,000.00,018.6,018.8,000.0,027.1,020.9,24.1,0003.1,0017.64,0006.22,0004.80
2024-03-07 14:37:00,SystemResetWarning,0823.2,4.99,000.00,018.7,019.0,000.0,027.1,021.0,23.8,0002.6,0017.90,0006.15,0004.78
2024-03-07 14:38:00,SystemResetWarning,0823.1,4.99,000.00,018.8,018.9,000.0,027.1,020.9,23.8,0002.6,0017.95,0006.14,0004.78
2024-03-07 14:39:00,SystemResetWarning,0823.1,5.00,000.00,018.8,018.7,000.0,027.1,020.8,23.8,0002.7,0018.24,0006.13,0004.78
2024-03-07 14:40:00,SystemResetWarning,0823.1,5.02,000.00,018.8,018.6,000.0,027.1,020.7,23.8,0002.8,0021.02,0006.15,0004.79
2024-03-07 14:41:00,SystemResetWarning,0823.1,4.99,000.00,018.8,018.5,000.0,027.1,020.6,23.8,0002.1,0020.92,0006.19,0004.79
2024-03-07 14:42:00,SystemResetWarning,0823.1,4.99,000.00,018.8,018.4,000.0,027.1,020.6,23.9,0001.5,0021.57,0006.27,0004.80
2024-03-07 14:43:00,SystemResetWarning,0823.2,5.01,000.00,018.8,018.3,000.0,027.1,020.6,23.9,0001.6,0022.82,0006.27,0004.81
2024-03-07 14:44:00,SystemResetWarning,0823.1,5.01,000.00,018.7,018.2,000.0,027.1,020.5,24.0,0001.3,0023.03,0006.25,0004.80
2024-03-07 14:45:00,SystemResetWarning,0823.1,5.00,000.00,018.7,018.2,000.0,027.2,020.5,24.0,0001.1,0022.06,0006.20,0004.80
2024-03-07 14:46:00,SystemResetWarning,0823.3,5.00,000.00,018.7,018.1,000.0,027.2,020.5,24.0,0000.7,0022.74,0006.23,0004.81
2024-03-07 14:47:00,SystemResetWarning,0823.1,4.99,000.00,018.7,018.1,000.0,027.2,020.5,24.0,0001.3,0023.25,0006.23,0004.81
2024-03-07 14:48:00,SystemResetWarning,0823.1,5.00,000.00,018.7,018.0,000.0,027.2,020.5,23.9,0002.5,0023.11,0006.26,0004.82
2024-03-07 14:49:00,SystemResetWarning,0823.2,5.01,000.00,018.7,018.0,000.0,027.2,020.4,23.8,0002.7,0022.67,0006.25,0004.84
2024-03-07 14:50:00,SystemResetWarning,0823.1,5.01,000.00,018.7,018.0,000.0,027.2,020.4,23.8,0002.5,0022.58,0006.29,0004.85
2024-03-07 14:51:00,SystemResetWarning,0823.1,5.00,000.00,018.7,018.0,000.0,027.2,020.4,23.8,0001.9,0019.88,0006.25,0004.83
2024-03-07 14:52:00,SystemResetWarning,0823.1,5.00,000.00,018.7,017.9,000.0,027.2,020.4,23.8,0002.0,0019.80,0006.20,0004.83
2024-03-07 14:53:00,SystemResetWarning,0823.1,5.00,000.00,018.7,017.9,000.0,027.2,020.4,23.8,0002.1,0019.19,0006.12,0004.82
2024-03-07 14:54:00,SystemResetWarning,0823.1,5.00,000.00,018.6,017.9,000.0,027.2,020.4,23.8,0002.1,0018.18,0006.12,0004.83
2024-03-07 14:55:00,SystemResetWarning,0823.1,5.00,000.00,018.6,017.9,000.0,027.2,020.4,23.8,0001.9,0017.69,0006.07,0004.82
2024-03-07 14:56:00,SystemResetWarning,0823.1,5.00,000.00,018.6,017.9,000.0,027.2,020.4,23.8,0001.8,0016.92,0006.06,0004.82
2024-03-07 14:57:00,SystemResetWarning,0823.1,5.00,000.00,018.6,017.9,000.0,027.2,020.4,23.9,0001.8,0015.85,0006.03,0004.80
2024-03-07 14:58:00,SystemResetWarning,0823.1,5.00,000.00,018.6,017.9,000.0,027.2,020.4,23.9,0001.6,0015.18,0006.05,0004.81
2024-03-07 14:59:00,SystemResetWarning,0823.1,5.00,000.00,018.6,017.9,000.0,027.2,020.4,24.0,0001.5,0015.21,0006.00,0004.79
